Weather History for Springfield, CO

Change the Weather History Date:

Saturday, May 11, 2013

  Actual Average Record
Temperature  
Mean Temperature 57 °F -  
Max Temperature 71 °F 74 °F 90 °F (2000)
Min Temperature 43 °F 45 °F 26 °F (2008)
Degree Days  
Heating Degree Days 8 6  
Month to date heating degree days 158 85  
Since 1 July heating degree days 5171 5184  
Cooling Degree Days 0 1  
Month to date cooling degree days 0 9  
Year to date cooling degree days 3 13  
Growing Degree Days 6 (Base 50)    
Moisture  
Dew Point 37 °F    
Average Humidity 51    
Maximum Humidity 76    
Minimum Humidity 26    
Precipitation  
Precipitation 0.00 in 0.05 in 0.04 in (2011)
Month to date precipitation 0.30 0.63  
Year to date precipitation 0.99 3.84  
Sea Level Pressure  
Sea Level Pressure 30.21 in    
Wind  
Wind Speed 11 mph (NE)    
Max Wind Speed 20 mph    
Max Gust Speed 30 mph    
T = Trace of Precipitation, MM = Missing Value Source: NWS Daily Summary

Daily Weather History Graph

Daily Weather History Graph

Search for Another Location

Airport:

Trip Planner

Search our weather history database for the weather conditions in past years. The results will help you decide how hot, cold, wet, or windy it might be!

Date:

Astronomy

May. 11, 2013 Rise Set
Actual Time 5:45 AM MDT 7:49 PM MDT
Civil Twilight 5:16 AM MDT 8:18 PM MDT
Nautical Twilight 4:41 AM MDT 8:53 PM MDT
Astronomical Twilight 4:03 AM MDT 9:31 PM MDT
Moon 6:55 AM MDT (5/11) 9:30 PM MDT (5/11)
Length of Visible Light 15h 01m
Length of Day
14h 04m
Waxing Crescent, 3% of the Moon is Illuminated
May 11
Waxing Crescent
May 17
First Quarter
May 24
Full
May 31
Last Quarter
Jun 8
New

Hourly Weather History & Observations

Time (MDT) Temp. Windchill Dew Point Humidity Pressure Visibility Wind Dir Wind Speed Gust Speed Precip Events Conditions
12:56 AM 43.0 °F 40.3 °F 36.0 °F 76% 30.17 in - West 4.6 mph - N/A   Unknown
1:56 AM 46.9 °F - 37.0 °F 68% 30.14 in - WNW 5.8 mph - N/A   Unknown
2:56 AM 46.9 °F - 37.0 °F 68% 30.14 in - NW 12.7 mph - N/A   Unknown
3:56 AM 46.0 °F 40.2 °F 37.0 °F 71% 30.15 in - NNW 12.7 mph - N/A   Unknown
4:56 AM 45.0 °F 39.3 °F 37.0 °F 74% 30.16 in - NNW 11.5 mph - N/A   Unknown
5:56 AM 46.0 °F 40.2 °F 37.0 °F 71% 30.19 in - NNW 12.7 mph - N/A   Unknown
6:56 AM 51.1 °F - 39.0 °F 63% 30.21 in - North 13.8 mph - N/A   Unknown
7:56 AM 54.0 °F - 41.0 °F 62% 30.23 in - NE 18.4 mph - N/A   Unknown
8:56 AM 57.9 °F - 39.9 °F 51% 30.26 in - ENE 19.6 mph 26.5 mph N/A   Unknown
9:56 AM 60.1 °F - 39.9 °F 47% 30.28 in - NE 18.4 mph 23.0 mph N/A   Unknown
10:56 AM 63.0 °F - 39.0 °F 41% 30.29 in - NE 17.3 mph 25.3 mph N/A   Unknown
11:56 AM 64.9 °F - 37.9 °F 37% 30.28 in - ENE 13.8 mph 23.0 mph N/A   Unknown
12:56 PM 66.0 °F - 37.0 °F 34% 30.27 in - ENE 12.7 mph 20.7 mph N/A   Unknown
1:56 PM 68.0 °F - 36.0 °F 31% 30.24 in - ENE 8.1 mph 23.0 mph N/A   Unknown
2:56 PM 66.9 °F - 34.0 °F 30% 30.23 in - ESE 5.8 mph - N/A   Unknown
3:56 PM 69.1 °F - 34.0 °F 27% 30.19 in - SE 8.1 mph 16.1 mph N/A   Unknown
4:56 PM 70.0 °F - 33.1 °F 26% 30.19 in - Variable 5.8 mph - N/A   Unknown
5:56 PM 66.9 °F - 33.1 °F 28% 30.18 in - ESE 3.5 mph - N/A   Unknown
6:56 PM 66.0 °F - 33.1 °F 29% 30.16 in - South 5.8 mph - N/A   Unknown